Notices

What's New in latest Release from April 7th, 2021:

- Updated Glossary, including Speed of Maximum Gust, and Total Hourly Precipitation

- Updated national and regional climate services offices contacts and prices information

- Addition of station inventory lists for 1981-2010, 1971-2000, and 1961-1990 Normals.

If you haven't already, please take our survey and provide feedback about our website: https://eccc.sondage-survey.ca/f/LanguageSelection.aspx?s=442ca660-fcf1-47c0-95a9-59707d6fd709

Hourly Data Report for November 30, 2019

SAINT JOHN A
NEW BRUNSWICK
Current Station Operator: NAVCAN

45°18'58.000" N
65°53'24.000" W
108.80 m
8104901
71609
YSJ

Download Data

Hourly Data (November 2019)
Hourly Data Report for November 30, 2019
TIME
LST
Temp Definition
°C
Dew Point Definition
°C
Rel Hum Definition
%
Precip. Amount Definition
mm

Wind Dir Definition
10's deg

Wind Spd Definition
km/h
Visibility Definition
km
Stn Press Definition
kPa
Hmdx Definition


Wind Chill Definition


Weather Definition


00:00 -6.5 -11.2 69   33 31 24.1 99.26   -15 LegendNANA
01:00 -6.5 -11.3 69   33 42 24.1 99.18   -16 LegendNANA
02:00 -6.5 -11.2 69   33 40 24.1 99.14   -16 Mainly Clear
03:00 -6.6 -11.2 70   33 40 24.1 99.15   -16 LegendNANA
04:00 -6.7 -11.4 69   33 30 24.1 99.11   -15 LegendNANA
05:00 -6.5 -11.5 68   33 35 24.1 99.11   -16 Mostly Cloudy
06:00 -6.7 -11.9 67   32 37 24.1 99.09   -16 LegendNANA
07:00 -6.8 -11.9 67   32 39 24.1 99.09   -16 LegendNANA
08:00 -6.8 -11.7 68   33 30 24.1 99.12   -15 Mostly Cloudy
09:00 -6.9 -11.3 71   32 35 24.1 99.12   -16 LegendNANA
10:00 -6.3 -11.4 67   33 36 24.1 99.08   -15 LegendNANA
11:00 -5.9 -11.4 66   32 39 24.1 99.06   -15 Cloudy
12:00 -4.4 -11.1 60   31 36 24.1 98.96   -13 LegendNANA
13:00 -4.0 -10.9 59   32 34 24.1 98.92   -12 LegendNANA
14:00 -3.4 -10.6 58   31 31 24.1 98.93   -11 Mostly Cloudy
15:00 -3.3 -10.4 58   31 32 24.1 98.95   -11 LegendNANA
16:00 -3.2 -10.1 59   32 19 24.1 98.98   -9 LegendNANA
17:00 -4.0 -10.1 63   31 26 24.1 99.01   -11 Mainly Clear
18:00 -5.0 -10.2 67   32 31 24.1 99.04   -13 LegendNANA
19:00 -5.5 -10.1 71   33 31 24.1 99.06   -14 LegendNANA
20:00 -5.8 -10.2 71   33 35 24.1 99.09   -15 Clear
21:00 -6.1 -10.3 72   32 33 24.1 99.19   -15 LegendNANA
22:00 -6.4 -10.6 73   32 36 24.1 99.23   -16 LegendNANA
23:00 -6.9 -10.9 73   33 18 24.1 99.33   -14 Clear

Notes on Data Quality.

Legend

  • E = Estimated
  • M = Missing
  • NA = Not Available*
  • [empty] = Indicates an unobserved value
Date modified: